Saint Paul, MN

7:56 AM CST on February 11, 2016 (GMT -0600)
Saint Paul Downtown-Holman

Weather History for KSTP - April, 2014

Change the Weather History Date:

Saturday, April 19, 2014

  Actual Average Record
Temperature  
Mean Temperature 53 °F -  
Max Temperature 66 °F 57 °F 66 °F (2007)
Min Temperature 42 °F 37 °F 28 °F (2013)
Degree Days  
Heating Degree Days 12    
Growing Degree Days 3 (Base 50)    
Moisture  
Dew Point 42 °F    
Average Humidity 71    
Maximum Humidity 100    
Minimum Humidity 45    
Precipitation  
Precipitation 0.15 in - - ()
Sea Level Pressure  
Sea Level Pressure 30.07 in    
Wind  
Wind Speed 13 mph (SSE)    
Max Wind Speed 25 mph    
Max Gust Speed 37 mph    
Visibility 7 miles    
Events Fog , Rain    
Averages and records for this station are not official NWS values.
T = Trace of Precipitation, MM = Missing Value Source: NWS Daily Summary

Daily Weather History Graph

Daily Weather History Graph

Search for Another Location

Airport or City:

Trip Planner

Search our weather history database for the weather conditions in past years. The results will help you decide how hot, cold, wet, or windy it might be!

Date:

Astronomy

Apr. 19, 2014 Rise Set
Actual Time 6:20 AM CDT 8:02 PM CDT
Civil Twilight 5:49 AM CDT 8:33 PM CDT
Nautical Twilight 5:12 AM CDT 9:11 PM CDT
Astronomical Twilight 4:31 AM CDT 9:52 PM CDT
Moon No Moon Rise 9:33 AM CDT (4/19)
Length of Visible Light 14h 44m
Length of Day
13h 41m
Waning Gibbous, 78% of the Moon is Illuminated
Apr 19
Waning Gibbous
Apr 22
Last Quarter
Apr 29
New
May 6
First Quarter
May 14
Full

Hourly Weather History & Observations

Time (CDT) Temp. Windchill Dew Point Humidity Pressure Visibility Wind Dir Wind Speed Gust Speed Precip Events Conditions
12:53 AM 44.1 °F 38.6 °F 28.0 °F 53% 30.21 in 10.0 mi SE 10.4 mph - N/A   Clear
1:53 AM 44.1 °F 37.4 °F 27.0 °F 51% 30.20 in 10.0 mi SE 13.8 mph - N/A   Clear
2:53 AM 44.1 °F 36.8 °F 27.0 °F 51% 30.18 in 10.0 mi SE 16.1 mph - N/A   Clear
3:53 AM 44.6 °F 36.9 °F 28.4 °F 53% 30.17 in 10.0 mi SSE 18.4 mph 23.0 mph N/A   Partly Cloudy
4:53 AM 45.0 °F 37.9 °F 28.9 °F 53% 30.18 in 10.0 mi SE 16.1 mph 27.6 mph N/A   Overcast
5:53 AM 44.1 °F 36.2 °F 30.9 °F 60% 30.15 in 10.0 mi SSE 18.4 mph 34.5 mph N/A   Clear
6:53 AM 42.8 °F 33.1 °F 30.2 °F 61% 30.14 in 10.0 mi SE 25.3 mph 36.8 mph N/A   Clear
7:53 AM 43.0 °F 33.5 °F 30.9 °F 62% 30.16 in 10.0 mi SSE 24.2 mph 34.5 mph N/A   Clear
8:53 AM 45.0 °F 37.1 °F 30.0 °F 56% 30.15 in 10.0 mi SSE 19.6 mph 27.6 mph N/A   Clear
9:53 AM 46.9 °F - 30.0 °F 52% 30.13 in 10.0 mi SSE 21.9 mph 27.6 mph N/A   Overcast
10:53 AM 50.0 °F - 32.0 °F 50% 30.10 in 10.0 mi SE 18.4 mph 26.5 mph N/A   Overcast
11:53 AM 54.0 °F - 35.1 °F 49% 30.08 in 10.0 mi SSE 16.1 mph - N/A   Overcast
12:53 PM 59.0 °F - 37.9 °F 46% 30.06 in 10.0 mi SSE 19.6 mph 25.3 mph N/A   Overcast
1:53 PM 60.1 °F - 39.9 °F 47% 30.03 in 10.0 mi SSE 18.4 mph 29.9 mph N/A   Overcast
2:53 PM 63.0 °F - 42.1 °F 46% 30.01 in 10.0 mi SSE 11.5 mph - N/A   Overcast
3:53 PM 64.9 °F - 43.0 °F 45% 30.00 in 10.0 mi South 18.4 mph 23.0 mph N/A   Overcast
4:53 PM 62.1 °F - 45.0 °F 53% 30.00 in 10.0 mi SSE 11.5 mph - N/A   Overcast
5:53 PM 57.0 °F - 48.0 °F 72% 30.00 in 7.0 mi SSE 10.4 mph - 0.00 in Rain Light Rain
6:53 PM 54.0 °F - 50.0 °F 86% 29.99 in 9.0 mi SSE 11.5 mph - 0.02 in   Overcast
7:53 PM 55.0 °F - 51.1 °F 86% 29.99 in 8.0 mi SSE 12.7 mph - N/A   Overcast
8:53 PM 55.9 °F - 52.0 °F 87% 30.01 in 9.0 mi Calm Calm - N/A   Overcast
9:53 PM 55.9 °F - 52.0 °F 87% 30.02 in 3.0 mi Calm Calm - 0.03 in Rain Light Rain
10:30 PM 54.0 °F - 52.0 °F 93% 30.01 in 2.5 mi Calm Calm - 0.04 in Rain Light Rain
10:37 PM 54.0 °F - 53.1 °F 97% 30.02 in 3.0 mi WNW 3.5 mph - 0.05 in Rain Light Rain
10:53 PM 53.1 °F - 52.0 °F 96% 30.02 in 3.0 mi Calm Calm - 0.05 in   Overcast
11:04 PM 53.1 °F - 53.1 °F 100% 30.02 in 1.8 mi Calm Calm - 0.01 in Rain Light Rain
11:23 PM 53.1 °F - 52.0 °F 96% 30.01 in 1.0 mi Calm Calm - 0.02 in Rain Light Rain
11:31 PM 51.1 °F - 51.1 °F 100% 30.01 in 0.5 mi East 3.5 mph - 0.02 in Fog , Rain Light Rain
11:43 PM 52.0 °F - 52.0 °F 100% 30.02 in 1.5 mi Calm Calm - 0.02 in   Overcast
11:53 PM 53.1 °F - 53.1 °F 100% 30.02 in 1.2 mi Calm Calm - 0.05 in Rain Rain
11:57 PM 53.1 °F - 53.1 °F 100% 30.02 in 0.8 mi Calm Calm - 0.01 in Rain Light Rain